Regional Weather Roundup
Issued by NWS San Angelo, TX

Home | Current Version | Previous Version | Text Only | Print | Product List | Glossary On
Versions: 1 2 3 4 5 6 7 8 9 10 11 12 13 14 15 16 17 18 19 20 21 22 23 24 25 26 27 28 29 30 31 32 33 34 35 36 37 38 39 40 41 42 43 44 45 46 47 48 49 50
000
ASUS44 KSJT 260402
RWRSJT
WEST CENTRAL TEXAS REGIONAL WEATHER ROUNDUP
NATIONAL WEATHER SERVICE SAN ANGELO TX
1100 PM CDT SUN JUN 25 2017

NOTE: "FAIR" INDICATES FEW OR NO CLOUDS BELOW 12,000 FEET WITH NO
SIGNIFICANT WEATHER AND/OR OBSTRUCTIONS TO VISIBILITY.

TXZ049-054-064>066-071>073-076>078-098-099-113-114-127-128-139-140-
154-155-168>170-260500
...LOCATIONS ACROSS WEST CENTRAL TEXAS...

CITY           SKY/WX    TMP DP  RH WIND       PRES   REMARKS
SAN ANGELO     CLEAR     77  64  64 E8        30.14R
ABILENE        CLEAR     75  67  76 E10       30.17R
DYESS AFB      CLEAR     76  67  74 E8        30.16R
JUNCTION       MOCLDY    80  68  66 E9        30.15R
SWEETWATER     PTCLDY    75  64  67 E9        30.21S
BROWNWOOD      CLOUDY    75  68  78 E7        30.17R
COLEMAN        NOT AVBL
SONORA         PTCLDY    81  64  57 SE8       30.19R
OZONA          FAIR      79  61  53 SE6       30.17R
BRADY          NOT AVBL
$$

TEXAS PANHANDLE/OKLAHOMA PANHANDLE

CITY           SKY/WX    TMP DP  RH WIND       PRES   REMARKS
AMARILLO       TSTM      59  57  93 E10G33    30.28R FOG
BORGER         CLOUDY    68  57  68 S16G26    30.13R
CANADIAN       CLOUDY    72  64  75 E5        30.20R
DALHART        TSTM      58  56  93 W13G26    30.30R
DUMAS          CLOUDY    64  60  84 NW6       30.24R
GUYMON         NOT AVBL
HEREFORD       NOT AVBL
PAMPA          NOT AVBL
PERRYTON       CLOUDY    71  62  73 SE10      30.22R
$$

SOUTHERN PANHANDLE/SOUTH PLAINS/ROLLING PLAINS

CITY           SKY/WX    TMP DP  RH WIND       PRES   REMARKS
LUBBOCK        CLOUDY    76  61  59 SE22      30.19R
SNYDER         PTCLDY    76  63  63 E8        30.19R
CHILDRESS      CLOUDY    74  62  66 SE16      30.15F
SEMINOLE       CLOUDY    77  60  55 SE10G16   30.19R
$$

PERMIAN BASIN

CITY           SKY/WX    TMP DP  RH WIND       PRES   REMARKS
MIDLAND        CLOUDY    82  59  45 SE17      30.17R
ODESSA         MOCLDY    81  60  48 SE13G26   30.18R
WINK           CLOUDY    85  59  41 MISG      30.11R
$$

FAR WEST/SOUTHWEST MOUNTAINS/TRANS PECOS

CITY           SKY/WX    TMP DP  RH WIND       PRES   REMARKS
ALPINE         PTCLDY    75  55  49 SE7       30.28R
DRYDEN           N/A     83  62  49 SE9       30.09R
EL PASO        MOCLDY    75  60  59 N9G24     30.20R
FORT STOCKTON  PTCLDY    82  60  47 SE10      30.13R
GUADALUPE PASS NOT AVBL
MARFA          CLOUDY    73  55  53 E10       30.27R
PECOS          NOT AVBL
$$

DALLAS/FORT WORTH METROPLEX

CITY           SKY/WX    TMP DP  RH WIND       PRES   REMARKS
DFW AIRPORT    PTCLDY    78  61  55 E8        30.15R
FTW MEACHAM    CLEAR     79  63  57 E8        30.16R
DAL-EXECUTIVE  CLOUDY    77  62  59 SE5       30.17R
GRAND PRAIRIE  PTCLDY    78  58  50 E7        30.18R
ADDISON        CLEAR     77  61  56 E6        30.19R
MESQUITE       MOCLDY    75  61  62 CALM      30.17R
LANCASTER      MOCLDY    73  66  78 CALM      30.18R
$$

NORTH CENTRAL TEXAS

CITY           SKY/WX    TMP DP  RH WIND       PRES   REMARKS
SHRMAN/DENISON NOT AVBL
GAINESVILLE    CLEAR     72  61  70 E5        30.19R
BRIDGEPORT     CLEAR     74  60  62 SE3       30.18R
DENTON         CLEAR     77  60  55 E7        30.16R
WAXAHACHIE     CLOUDY    75  69  82 CALM      30.19R
GRANBURY       MOCLDY    78  69  71 E7        30.18R
$$

WESTERN NORTH TEXAS

CITY           SKY/WX    TMP DP  RH WIND       PRES   REMARKS
WICHITA FALLS  CLEAR     73  64  73 E7        30.15R
VERNON         CLOUDY    75  60  58 SE7       30.15F
BRECKENRIDGE   NOT AVBL
COMANCHE       CLEAR     72  71  96 E5        30.18R
$$

CENTRAL AND SOUTH CENTRAL TEXAS

CITY           SKY/WX    TMP DP  RH WIND       PRES   REMARKS
AUSTIN/BERGSTM MOCLDY    77  72  84 CALM      30.11R
WACO           PTCLDY    75  71  87 NE7       30.14R
HILLSBORO      CLOUDY    75  71  87 NE5       30.16R
TEMPLE         CLOUDY    77  73  87 E7        30.14R
KILLEEN-GRAY   CLOUDY    76  73  88 E6        30.14R
FORT HOOD      CLOUDY    76  71  84 E6        30.11R
GEORGETOWN     CLEAR     75  68  78 SE5       30.13R
LAGO VISTA     MOCLDY    77  71  81 SE7       30.15R
SAN MARCOS     MOCLDY    73  72  94 CALM      30.13R
NEW BRAUNFELS  CLEAR     74  70  87 E5        30.10R
RANDOLPH AFB   CLEAR     73  73 100 E3        30.11R
SAN ANTONIO    CLOUDY    76  71  85 E7        30.11R
STINSON        PTCLDY    77  71  82 E6        30.08R
PLEASANTON     NOT AVBL
LA GRANGE      CLOUDY    75  74  96 CALM      30.09R
GIDDINGS       DRIZZLE   72  69  90 E3        30.11S
$$

EAST TEXAS

CITY           SKY/WX    TMP DP  RH WIND       PRES   REMARKS
PARIS            N/A     72  63  73 E6        30.19R
CLARKSVILLE    NOT AVBL
TYLER          CLEAR     74  66  76 SE12      30.17R
LONGVIEW       CLEAR     72  65  78 SE8       30.17R
PALESTINE      CLEAR     75  70  84 E8        30.17S
NACOGDOCHES    CLEAR     72  66  83 MISG      30.15R
$$

TEXAS HILL COUNTRY AND EDWARDS PLATEAU

CITY           SKY/WX    TMP DP  RH WIND       PRES   REMARKS
LLANO          NOT AVBL
HORSESHOE BAY  MOCLDY    78  70  78 E3        30.14R
KERRVILLE      MOCLDY    76  72  85 E5        30.15R
FREDERICKSBRG  CLOUDY    77  66  69 E5        30.16R
ROCKSPRINGS    NOT AVBL
HONDO          CLEAR     78  72  81 SE8       30.10R
UVALDE         CLEAR     75  68  77 CALM      30.10R
DEL RIO        PTCLDY    80  69  69 SE7       30.07R
$$

SOUTHEAST TEXAS

CITY           SKY/WX    TMP DP  RH WIND       PRES   REMARKS
COLLEGE STN    CLOUDY    72  72 100 CALM      30.13R
CALDWELL       NOT AVBL
CROCKETT       NOT AVBL
BRENHAM        CLOUDY    76  75  96 CALM      30.13R
HUNTSVILLE     CLOUDY    78  73  84 CALM      30.14R
CONROE         CLOUDY    75  72  90 CALM      30.13R
HOUSTON BUSH   MOCLDY    76  73  91 E8        30.11S
HOUSTON HOBBY  MOCLDY    81  72  74 E5        30.11R
PERLAND        MOCLDY    81  74  79 NE5       30.12R
WHARTON        NOT AVBL
$$

THE UPPER TEXAS COAST

CITY           SKY/WX    TMP DP  RH WIND       PRES   REMARKS
ORANGE         RAIN      76  75  96 SE3       30.16R
PORT ARTHUR      N/A    N/A N/A N/A MISG      30.14S
GALVESTON      PTCLDY    81  77  88 E17       30.11R
ANGLETON       PTCLDY    78  75  90 E3        30.10R
BAY CITY       CLEAR     78  75  92 CALM      30.09S
$$

TEXAS COASTAL BEND, RIO GRANDE PLAINS DEEP SOUTH TEXAS

CITY           SKY/WX    TMP DP  RH WIND       PRES   REMARKS
VICTORIA       PTCLDY    76  74  93 NE5       30.09R
BEEVILLE       FAIR     N/A N/A N/A CALM      30.07R
ROCKPORT       CLOUDY    83  73  72 SE13      30.06R
PORT ARANSAS   PTCLDY    82  74  76 SE10      30.06S
PORT LAVACA    NOT AVBL
CORPUS CHRISTI MOCLDY    83  75  77 SE9       30.06R
KINGSVILLE NAS PTCLDY    78  77  96 E3        30.06R
COTULLA        CLEAR     77  71  82 E8        30.07R
LAREDO         CLEAR     80  72  76 SE8       30.06R
BROWNSVILLE    PTCLDY    79  76  90 SE6       30.05R
PORT ISABEL    PTCLDY    81  76  84 SE8       30.03S
HEBBRONVILLE   NOT AVBL
MCALLEN        PTCLDY    83  75  77 E8        30.05R
WESLACO        CLEAR     80  75  85 SE6       30.04R
FALFURRIAS     PTCLDY    79  75  89 E5        30.05R
EDINBURG       CLEAR     80  76  87 CALM      30.05S
$$



USA.gov is the U.S. government's official web portal to all federal, state and local government web resources and services.